Baton Rouge, LA

3:03 PM CST on December 08, 2019 (GMT -0600)
Baton Rouge Metro-Ryan

Weather History for KBTR - November, 2019

Change the Weather History Date:

Tuesday, November 12, 2019

  Actual Average Record
Temperature  
Mean Temperature 40 °F 61 °F  
Max Temperature 51 °F 73 °F 86 °F (1896)
Min Temperature 28 °F 50 °F 30 °F (1950)
Degree Days  
Heating Degree Days 25 5  
Month to date heating degree days 110 52  
Since 1 July heating degree days 139 98  
Cooling Degree Days 0 2  
Month to date cooling degree days 9 28  
Year to date cooling degree days 3123 2778  
Moisture  
Dew Point 27 °F    
Average Humidity 63    
Maximum Humidity 89    
Minimum Humidity 37    
Precipitation  
Precipitation 0.05 in 0.13 in 2.06 in (1997)
Month to date precipitation 0.14 1.68  
Year to date precipitation 59.70 52.63  
Snow  
Snow 0.00 in - - ()
Month to date snowfall 0.0  
Since 1 July snowfall 0.0  
Since 1 September snowfall 0.0  
Snow Depth 0.00 in    
Sea Level Pressure  
Sea Level Pressure 30.32 in    
Wind  
Wind Speed 13 mph (North)    
Max Wind Speed 24 mph    
Max Gust Speed 35 mph    
Visibility 10 miles    
Events Rain    
T = Trace of Precipitation, MM = Missing Value Source: NWS Daily Summary

Daily Weather History Graph

Daily Weather History Graph

Search for Another Location

Airport or City:

Astronomy

Nov. 12, 2019 Rise Set
Actual Time 6:27 AM CST 5:09 PM CST
Civil Twilight 6:02 AM CST 5:34 PM CST
Nautical Twilight 5:33 AM CST 6:03 PM CST
Astronomical Twilight 5:05 AM CST 6:31 PM CST
Moon 5:34 PM CST (11/12) 6:23 AM CST (11/12)
Length of Visible Light 11h 31m
Length of Day
10h 41m
Full, 100% of the Moon is Illuminated
Nov 12
Full
Nov 19
Last Quarter
Nov 26
New
Dec 4
First Quarter
Dec 11
Full

Hourly Weather History & Observations

Time (CST) Temp. Windchill Dew Point Humidity Pressure Visibility Wind Dir Wind Speed Gust Speed Precip Events Conditions
12:19 AM 50.0 °F - 46.0 °F 86% 30.12 in 10.0 mi North 15.0 mph 21.9 mph N/A   Overcast
2:53 AM 43.0 °F 35.1 °F 39.0 °F 86% 30.19 in 10.0 mi North 17.3 mph 28.8 mph 0.03 in   Overcast
3:53 AM 41.0 °F 35.2 °F 37.0 °F 86% 30.22 in 10.0 mi NNW 9.2 mph 24.2 mph 0.00 in Rain Light Rain
4:42 AM 39.0 °F 30.6 °F 34.0 °F 82% 30.24 in 10.0 mi North 15.0 mph 29.9 mph 0.00 in   Overcast
4:53 AM 39.0 °F 30.3 °F 35.1 °F 86% 30.25 in 10.0 mi North 16.1 mph 24.2 mph 0.00 in   Overcast
5:53 AM 37.9 °F 29.6 °F 34.0 °F 86% 30.28 in 10.0 mi North 13.8 mph 25.3 mph 0.00 in Rain Light Rain
6:00 AM 37.9 °F 29.6 °F 35.1 °F 89% 30.29 in 10.0 mi NNW 13.8 mph 25.3 mph 0.00 in Rain Light Rain
6:53 AM 37.0 °F 28.1 °F 32.0 °F 82% 30.31 in 10.0 mi North 15.0 mph 28.8 mph 0.00 in   Overcast
7:51 AM 35.6 °F 25.9 °F 30.2 °F 81% 30.33 in 10.0 mi North 16.1 mph 28.8 mph N/A   Overcast
7:53 AM 36.0 °F 26.0 °F 30.0 °F 79% 30.34 in 10.0 mi North 17.3 mph 28.8 mph N/A   Overcast
9:48 AM 37.4 °F 28.9 °F 26.6 °F 65% 30.37 in 10.0 mi North 13.8 mph 27.6 mph N/A   Scattered Clouds
9:53 AM 37.9 °F 28.2 °F 28.0 °F 68% 30.36 in 10.0 mi NNE 18.4 mph 25.3 mph N/A   Scattered Clouds
10:53 AM 41.0 °F 33.5 °F 25.0 °F 53% 30.35 in 10.0 mi North 13.8 mph 27.6 mph N/A   Clear
11:53 AM 44.1 °F 36.2 °F 25.0 °F 47% 30.33 in 10.0 mi North 18.4 mph 25.3 mph N/A   Clear
12:53 PM 46.9 °F - 24.1 °F 41% 30.32 in 10.0 mi North 16.1 mph 21.9 mph N/A   Clear
1:53 PM 46.0 °F 40.6 °F 24.1 °F 42% 30.30 in 10.0 mi NNW 11.5 mph 19.6 mph N/A   Clear
2:53 PM 44.1 °F 36.8 °F 19.9 °F 38% 30.30 in 10.0 mi North 16.1 mph 23.0 mph N/A   Clear
3:53 PM 42.1 °F 34.9 °F 19.0 °F 40% 30.32 in 10.0 mi North 13.8 mph 23.0 mph N/A   Clear
4:53 PM 39.0 °F 31.0 °F 19.9 °F 46% 30.35 in 10.0 mi NNW 13.8 mph 21.9 mph N/A   Clear
5:53 PM 36.0 °F 29.6 °F 19.9 °F 52% 30.35 in 10.0 mi North 8.1 mph 16.1 mph N/A   Clear
6:53 PM 34.0 °F 25.5 °F 19.9 °F 56% 30.37 in 10.0 mi North 11.5 mph 17.3 mph N/A   Clear
7:53 PM 33.1 °F 25.5 °F 19.9 °F 59% 30.38 in 10.0 mi North 9.2 mph 18.4 mph N/A   Clear
8:53 PM 32.0 °F 24.8 °F 19.9 °F 61% 30.39 in 10.0 mi North 8.1 mph - N/A   Clear
9:53 PM 30.0 °F 23.2 °F 19.9 °F 66% 30.39 in 10.0 mi North 6.9 mph - N/A   Clear
10:53 PM 28.9 °F 20.4 °F 19.9 °F 69% 30.38 in 10.0 mi North 9.2 mph - N/A   Clear
11:53 PM 28.0 °F 20.0 °F 19.9 °F 72% 30.37 in 10.0 mi North 8.1 mph - N/A   Clear